Wetbulb
67.65 66.15 61.08 60.31 50.94 50.41 45.74 47.49 50.69 51.17 55.15 58.45 57.98 59.56 60.62 61.99 59.62 57.30 67.89 70.54 70.72 71.18 73.77 74.94 75.18 74.96 74.63 74.33 74.13 74.08 73.83 73.81 73.56 73.31 72.96 72.12 71.81 70.72 69.55 69.54 68.85 67.96 67.58 67.19 66.84 66.98 67.26 67.18 67.16
66.58 60.22 59.18 56.42 47.19 44.04 45.53 49.60 50.89 54.15 58.33 59.26 60.30 59.53 59.90 59.05 62.79 64.64 66.64 70.63 71.01 72.80 74.19 73.32 75.15 74.83 74.60 74.23 73.76 73.41 73.04 72.91 72.59 72.12 71.59 70.79 70.63 70.17 68.95 68.56 67.94 67.80 67.55 67.77 68.15 68.12 68.12 67.93 68.08
61.77 59.79 55.15 53.01 46.59 43.52 45.92 50.74 52.25 56.77 58.26 57.26 59.35 60.81 61.08 60.81 64.67 66.58 69.27 71.18 71.23 72.71 73.93 73.95 74.90 74.56 74.53 74.08 73.63 73.06 72.62 72.29 71.74 71.39 71.11 70.93 70.56 70.16 69.54 69.23 68.67 67.69 67.82 68.18 68.29 68.23 68.31 68.82 68.90
61.02 58.88 54.37 47.85 46.37 49.02 49.15 54.94 56.10 55.71 57.84 59.47 60.57 58.20 61.22 64.88 66.30 68.56 70.84 71.21 71.63 72.33 72.99 73.54 74.80 74.43 74.43 74.11 73.61 73.04 72.54 72.14 71.64 71.51 71.21 70.91 70.77 70.28 69.91 69.59 69.42 68.18 68.61 68.85 68.90 68.86 69.00 68.94 68.97
59.33 54.48 47.89 45.75 46.11 49.71 53.17 54.86 55.74 54.72 56.11 59.07 60.11 58.14 59.92 64.60 68.85 70.61 71.24 71.56 71.43 72.25 73.23 72.72 74.70 74.25 74.48 74.38 73.83 73.06 72.57 72.07 71.77 71.59 71.39 71.27 70.88 70.61 70.34 69.81 68.92 68.84 69.22 69.47 69.54 69.86 70.20 70.15 70.22
52.54 52.52 44.86 42.18 45.12 49.15 52.46 54.59 54.27 55.56 57.57 58.13 58.75 59.13 60.66 63.91 67.74 70.43 71.60 71.95 72.37 71.98 72.85 72.39 74.40 74.23 74.15 74.06 73.78 72.91 72.54 72.25 71.92 71.75 71.77 71.45 71.23 70.91 70.44 70.36 69.60 69.55 69.99 70.22 70.42 70.52 70.48 70.64 70.79
50.85 49.26 44.16 44.26 44.76 47.49 49.66 54.44 53.75 55.82 56.17 57.56 60.88 58.11 61.61 62.80 66.38 70.68 71.34 71.75 71.95 72.17 72.13 71.83 72.92 73.73 74.23 73.78 73.21 72.96 72.29 72.19 71.73 71.38 71.31 71.38 71.43 70.94 70.72 70.62 70.64 70.69 71.03 71.13 71.30 70.96 70.84 71.18 70.81
53.55 51.03 45.37 45.53 44.08 45.77 52.44 54.78 56.88 56.60 56.57 59.78 60.65 56.26 57.86 61.99 68.87 70.31 70.54 70.54 70.67 71.46 71.61 71.41 71.81 72.61 72.18 72.37 73.66 73.13 72.56 72.36 71.82 71.67 71.48 71.31 71.50 71.21 71.01 70.37 70.67 70.99 71.16 71.19 71.18 71.11 71.09 70.62 69.98
53.74 47.17 44.37 45.02 45.28 47.02 52.94 52.32 56.63 58.02 57.68 58.07 59.33 59.90 61.33 63.68 68.79 69.31 69.26 69.51 69.84 69.69 70.66 71.09 70.57 72.24 71.80 71.21 71.93 73.21 73.11 72.66 72.04 71.83 71.72 71.01 69.55 69.94 70.26 69.92 70.96 71.40 71.60 71.47 71.40 71.35 71.41 70.20 69.27
52.15 47.69 46.85 49.35 49.35 49.20 51.51 51.99 53.47 53.82 55.09 55.24 57.45 58.94 60.73 62.09 62.21 62.34 63.98 65.51 68.40 69.62 69.87 70.15 70.85 71.15 71.81 70.14 71.55 72.09 71.48 71.25 71.62 70.99 71.13 70.83 70.67 70.55 69.34 70.23 70.78 71.57 71.67 71.38 71.57 71.73 71.00 69.88 69.40
53.33 47.91 50.72 50.46 50.24 51.20 50.85 50.96 52.82 52.78 53.19 55.75 55.61 57.38 59.47 59.85 61.29 61.17 61.16 62.53 63.13 66.00 69.98 70.28 70.37 71.24 71.29 70.63 70.70 71.40 72.05 71.73 72.31 71.37 71.85 71.99 70.84 70.29 69.96 69.49 70.22 70.15 70.85 70.99 71.49 71.34 70.62 69.81 69.46
49.31 52.87 52.91 52.19 51.21 50.32 49.23 52.07 52.31 54.26 54.78 58.27 59.55 60.19 60.03 59.40 59.85 60.48 60.76 61.47 62.52 63.93 65.88 70.96 70.44 70.81 71.79 71.33 70.07 69.76 70.08 70.70 70.36 70.57 71.94 71.36 69.97 69.95 70.28 68.69 69.22 69.96 68.93 70.45 71.35 70.78 70.82 70.20 69.58
49.42 51.15 53.87 55.00 55.03 54.14 55.99 54.60 54.70 55.88 58.71 60.15 59.93 59.47 59.21 59.69 60.30 60.99 61.82 62.72 63.60 63.32 65.51 66.39 71.00 70.79 71.33 71.33 70.41 69.90 70.02 70.17 70.11 69.81 70.96 71.00 69.59 69.84 69.34 69.54 68.49 68.86 68.57 69.42 70.47 70.50 70.40 69.65 69.05
49.37 50.06 51.49 53.87 55.04 55.55 54.03 54.22 55.60 55.97 58.41 57.62 58.15 58.24 58.69 59.14 59.77 60.62 61.75 62.30 64.35 64.47 65.07 66.46 68.34 72.00 71.44 70.77 71.25 70.19 69.89 70.42 69.99 70.04 70.70 71.03 69.84 69.37 68.29 68.50 67.75 67.69 67.61 68.28 69.69 70.00 69.65 69.11 68.58
47.00 44.63 46.92 47.79 51.23 52.35 54.29 50.08 51.61 55.64 56.35 55.21 55.89 56.81 58.00 59.16 60.06 60.05 62.33 63.91 64.00 64.99 65.58 67.26 67.42 70.01 71.76 71.49 71.03 70.36 69.37 69.21 69.76 69.04 71.02 70.07 70.68 69.86 69.57 67.87 67.67 68.04 68.02 68.74 69.24 68.94 69.03 68.43 68.23
43.19 44.06 40.62 46.99 47.15 48.33 49.05 44.10 51.61 54.47 54.07 53.70 55.19 56.39 57.26 58.68 59.94 61.08 61.92 63.55 64.52 64.56 65.60 66.76 64.14 66.35 71.52 71.84 71.11 69.88 69.84 68.82 68.86 68.94 68.78 69.49 70.00 69.42 68.64 67.34 67.18 68.36 68.19 67.27 67.35 68.01 67.14 67.58 67.79
42.21 38.28 40.32 43.20 48.28 47.60 47.16 45.82 51.37 54.41 54.25 54.20 55.65 56.31 56.14 57.02 58.67 61.52 61.24 62.10 64.53 65.62 66.07 65.97 65.95 64.63 70.21 71.53 70.77 70.78 70.80 68.50 68.61 68.74 68.53 69.23 69.31 68.83 67.83 67.10 67.45 68.64 66.13 66.36 67.84 67.62 67.54 68.49 68.20
36.91 37.83 40.37 40.73 45.56 46.48 45.54 45.81 49.84 52.54 51.86 52.29 53.43 54.09 54.48 55.29 57.18 59.72 60.96 61.95 63.04 65.34 66.58 66.90 65.46 65.44 67.75 68.92 70.21 69.80 69.23 68.04 68.48 68.39 68.61 69.30 69.22 68.49 68.81 68.01 68.31 67.38 66.69 66.71 67.73 67.92 68.26 68.64 67.93
40.23 39.48 39.61 43.02 45.84 45.42 44.61 45.47 47.78 50.32 50.76 50.59 51.42 52.38 53.41 54.57 56.82 58.70 59.92 61.98 63.17 65.48 65.96 66.76 65.38 66.67 64.76 67.00 67.37 67.76 67.38 68.16 67.92 68.55 69.33 69.35 69.03 68.69 68.74 67.65 67.69 67.72 66.77 67.23 68.39 67.67 67.93 66.57 66.06
39.23 37.76 37.51 40.94 43.71 43.20 44.12 43.63 46.76 48.15 48.47 49.95 50.45 51.43 52.39 53.65 55.15 57.24 59.25 61.47 62.89 63.48 64.66 65.98 65.20 65.85 66.03 67.48 68.87 68.85 68.63 68.69 68.91 68.47 68.85 69.64 69.47 69.49 68.71 68.37 67.54 68.02 66.66 68.67 67.19 66.68 65.06 65.15 63.88
38.25 37.10 37.97 37.51 41.55 43.89 42.45 41.12 44.06 47.69 49.53 50.32 51.06 52.11 52.74 53.53 54.34 56.01 57.51 59.89 61.69 62.62 64.04 64.37 65.29 65.43 67.06 68.61 68.83 68.86 68.76 66.89 66.57 67.79 68.44 69.24 69.40 69.52 69.18 68.41 67.09 67.17 68.35 66.82 66.44 68.55 67.07 64.35 62.23
34.22 39.64 39.51 39.21 38.56 35.01 42.36 33.88 42.29 45.45 46.45 48.08 49.33 50.69 52.21 52.81 54.17 55.63 56.93 59.06 60.94 61.39 62.15 61.84 63.12 64.31 66.93 69.30 68.63 68.33 67.42 65.36 66.48 66.19 68.52 67.91 69.44 68.97 68.70 67.94 67.49 68.36 68.29 66.06 68.61 68.15 67.01 65.46 62.57
36.03 40.49 38.71 38.15 37.00 36.70 37.70 34.88 39.85 44.67 43.39 46.09 48.53 50.16 51.65 52.74 53.32 53.71 54.79 57.11 58.85 59.92 62.22 67.08 65.20 62.97 66.48 68.80 69.39 68.41 68.12 68.13 68.50 68.49 67.03 66.60 68.65 69.44 68.15 68.34 69.03 69.07 66.82 66.76 68.12 66.78 65.75 64.66 63.47
40.26 38.48 38.66 38.69 36.84 29.80 35.79 35.24 37.35 41.02 43.40 45.30 47.98 49.50 51.16 52.93 53.55 54.04 55.24 56.64 58.44 64.94 66.38 66.42 66.05 65.40 66.85 68.10 68.81 69.05 68.65 67.67 67.26 67.57 65.85 66.76 68.32 68.49 68.81 68.92 69.15 69.22 68.56 67.77 66.74 66.38 65.80 64.93 64.24
38.10 34.87 28.32 26.88 27.89 27.50 37.45 34.73 38.08 43.86 45.25 46.40 47.87 49.19 51.22 52.94 54.42 55.47 55.17 58.69 64.02 65.40 65.56 65.00 66.57 66.45 67.62 68.06 68.49 68.74 68.75 68.45 68.32 67.89 67.58 67.48 67.11 67.52 68.01 68.71 68.36 67.62 67.44 66.79 66.28 65.87 65.36 64.90 64.11
36.44 35.18 30.08 22.98 25.89 29.53 36.36 32.04 38.25 45.62 48.01 48.84 49.49 51.17 52.28 53.51 54.74 54.24 58.45 63.33 64.62 65.69 65.34 67.05 67.18 66.88 67.64 67.60 67.59 68.15 68.48 67.97 67.95 68.42 67.55 66.90 67.09 67.41 67.93 67.81 67.52 66.60 65.98 66.00 66.22 65.45 65.26 65.63 64.75
36.40 32.26 38.09 31.90 33.25 30.88 33.89 37.34 42.00 44.40 45.91 47.87 49.86 52.35 53.56 57.83 55.98 56.29 62.57 64.20 64.41 64.60 66.74 67.47 67.32 67.03 67.06 66.82 66.88 67.21 67.62 67.89 67.93 67.99 68.13 67.24 67.55 66.75 66.80 66.82 66.00 65.52 65.59 65.98 66.22 65.40 65.54 65.62 64.94
37.90 40.04 31.71 33.20 25.32 24.96 32.20 33.99 36.98 41.99 44.35 47.09 48.44 50.86 54.55 57.67 56.84 60.52 61.97 62.97 64.79 66.84 66.91 67.32 67.55 66.72 66.65 66.75 67.04 66.84 67.18 67.26 67.11 67.43 66.98 67.06 66.57 66.34 66.00 65.64 65.52 65.19 65.52 65.93 66.67 67.00 66.44 65.54 64.88
32.98 34.77 35.77 35.48 33.74 29.03 29.65 34.79 43.91 44.27 45.01 45.61 47.31 50.11 57.05 55.75 59.29 60.40 62.03 63.85 65.73 66.24 66.32 66.25 66.20 66.03 66.05 66.29 66.32 66.39 66.10 66.46 66.89 66.65 66.39 66.10 66.14 65.64 65.09 64.84 64.63 64.96 65.33 66.04 66.51 66.25 65.57 63.75 65.14
37.32 35.20 36.82 31.44 30.18 32.85 32.20 33.42 45.33 45.32 45.92 46.93 47.32 49.17 57.95 59.40 59.44 60.53 62.10 64.07 65.24 65.35 65.42 65.28 65.96 65.87 65.83 66.10 66.15 65.88 65.86 66.05 65.78 65.62 65.64 65.36 64.64 65.10 64.64 64.51 64.41 64.32 64.53 65.38 64.85 64.47 63.96 62.84 63.91
MSLP
1012.44 1012.36 1012.31 1011.68 1011.36 1010.36 1008.63 1007.50 1006.82 1005.98 1005.46 1005.07 1005.02 1004.83 1004.18 1004.03 1004.28 1004.69 1005.18 1005.72 1006.02 1006.66 1007.58 1008.53 1008.86 1009.16 1009.82 1010.41 1010.85 1011.10 1011.43 1011.75 1012.00 1012.34 1012.62 1012.70 1012.86 1013.17 1013.39 1013.50 1013.59 1013.83 1014.14 1014.46 1014.77 1015.00 1015.18 1015.32 1015.50
1012.16 1012.33 1011.87 1011.21 1010.55 1009.07 1007.55 1006.92 1006.12 1005.30 1004.87 1004.66 1004.42 1004.35 1004.32 1003.84 1004.26 1004.26 1004.92 1005.94 1006.18 1006.63 1007.29 1008.00 1008.79 1009.10 1009.49 1010.06 1010.67 1010.95 1011.28 1011.67 1012.08 1012.36 1012.64 1012.96 1013.16 1013.32 1013.50 1013.71 1013.79 1013.81 1014.09 1014.38 1014.65 1014.92 1015.11 1015.33 1015.47
1012.16 1011.88 1011.03 1010.54 1009.83 1008.08 1006.67 1006.21 1005.75 1005.38 1004.80 1004.48 1003.94 1003.88 1003.95 1003.80 1004.17 1004.07 1004.59 1005.60 1006.36 1006.80 1007.32 1007.82 1008.61 1008.88 1009.39 1009.92 1010.22 1010.73 1011.11 1011.47 1011.82 1012.17 1012.44 1012.79 1013.15 1013.37 1013.50 1013.69 1013.88 1014.09 1014.01 1014.15 1014.48 1014.66 1014.84 1015.05 1015.32
1011.91 1011.43 1011.36 1010.33 1008.86 1007.95 1006.74 1005.85 1005.58 1005.17 1004.48 1004.28 1003.95 1003.72 1003.92 1003.64 1003.99 1004.01 1004.86 1005.65 1006.26 1006.84 1007.26 1007.78 1008.29 1008.56 1008.95 1009.48 1009.81 1010.28 1010.85 1011.33 1011.60 1011.91 1012.19 1012.51 1012.84 1013.15 1013.38 1013.68 1014.06 1014.10 1014.11 1014.24 1014.51 1014.67 1014.81 1014.83 1015.00
1011.79 1011.09 1010.30 1009.61 1008.44 1007.47 1006.77 1006.12 1005.74 1005.14 1004.55 1004.04 1003.97 1003.58 1003.62 1003.67 1004.28 1004.71 1005.24 1005.70 1006.09 1006.64 1007.37 1007.74 1008.17 1008.60 1009.12 1009.58 1009.66 1009.89 1010.53 1011.10 1011.46 1011.71 1011.98 1012.15 1012.59 1013.02 1013.25 1013.47 1013.70 1013.98 1014.25 1014.43 1014.49 1014.63 1014.73 1014.80 1014.87
1011.48 1011.17 1009.94 1008.79 1007.75 1007.12 1006.58 1005.80 1005.32 1004.80 1004.24 1003.93 1003.96 1003.70 1003.67 1003.97 1004.29 1004.62 1004.98 1005.44 1005.98 1006.35 1007.09 1007.64 1008.36 1008.68 1008.94 1009.24 1009.79 1010.10 1010.31 1010.79 1011.29 1011.49 1011.82 1012.08 1012.26 1012.66 1012.97 1013.25 1013.50 1013.74 1014.00 1014.22 1014.43 1014.46 1014.68 1014.76 1014.87
1010.68 1010.35 1009.29 1008.80 1007.67 1006.62 1006.02 1005.72 1004.91 1004.34 1004.06 1003.63 1003.66 1003.69 1003.89 1004.11 1004.48 1004.87 1005.30 1005.78 1006.14 1006.55 1007.14 1007.64 1007.91 1008.57 1009.21 1009.41 1009.78 1010.02 1010.41 1010.71 1011.01 1011.33 1011.58 1011.81 1012.07 1012.29 1012.60 1012.99 1013.21 1013.51 1013.83 1014.12 1014.20 1014.34 1014.52 1014.64 1014.84
1010.40 1010.03 1008.97 1008.46 1007.55 1006.28 1005.89 1005.27 1004.75 1004.29 1003.98 1003.83 1003.78 1003.66 1003.86 1004.29 1004.69 1005.25 1005.47 1005.83 1006.11 1006.55 1006.92 1007.53 1007.84 1008.14 1008.73 1009.01 1009.58 1009.78 1010.06 1010.37 1010.65 1010.92 1011.19 1011.43 1011.88 1012.23 1012.38 1012.73 1013.00 1013.22 1013.42 1013.76 1013.96 1014.17 1014.31 1014.46 1014.68
1010.43 1009.64 1008.16 1007.49 1007.29 1006.43 1005.87 1005.30 1005.06 1004.68 1004.25 1004.11 1003.78 1003.47 1003.81 1004.35 1004.60 1004.92 1005.35 1005.73 1005.95 1006.25 1006.62 1007.09 1007.45 1007.93 1008.13 1008.28 1008.70 1009.51 1009.85 1010.13 1010.53 1010.69 1011.05 1011.56 1011.66 1011.97 1012.32 1012.47 1012.60 1012.94 1013.21 1013.38 1013.64 1014.01 1014.26 1014.43 1014.57
1009.44 1008.36 1007.33 1006.86 1006.63 1006.16 1005.94 1005.68 1005.05 1004.93 1004.57 1004.23 1004.07 1004.22 1004.32 1004.39 1004.15 1004.16 1004.35 1004.69 1005.13 1005.47 1005.98 1006.43 1006.83 1007.10 1007.58 1007.76 1008.25 1008.65 1009.13 1009.39 1009.75 1010.05 1010.47 1011.03 1011.40 1011.63 1011.82 1012.19 1012.67 1012.83 1013.16 1013.33 1013.58 1013.84 1014.12 1014.30 1013.83
1008.44 1006.85 1006.82 1006.05 1006.15 1006.16 1005.75 1005.44 1005.28 1004.97 1004.41 1004.16 1003.98 1003.74 1004.56 1004.42 1004.23 1004.28 1004.40 1004.46 1004.42 1004.50 1004.74 1005.38 1006.30 1006.90 1007.27 1007.43 1007.53 1007.71 1008.26 1008.74 1008.89 1009.43 1009.93 1010.49 1010.90 1011.24 1011.73 1012.06 1012.48 1012.68 1012.98 1012.88 1013.25 1013.56 1013.58 1013.69 1013.79
1007.90 1006.96 1006.63 1006.14 1006.46 1006.34 1005.69 1005.19 1004.78 1004.78 1004.08 1004.19 1004.36 1004.38 1004.32 1004.38 1004.19 1004.12 1004.31 1004.42 1004.36 1004.19 1004.16 1004.52 1005.22 1005.88 1006.26 1006.70 1006.86 1007.10 1007.16 1007.67 1007.99 1008.39 1009.29 1009.82 1010.39 1010.78 1011.09 1011.41 1011.96 1012.46 1012.63 1012.64 1012.87 1012.95 1013.27 1013.52 1013.77
1007.52 1006.75 1006.71 1006.45 1006.49 1006.39 1006.29 1004.93 1004.27 1003.87 1004.25 1004.11 1004.06 1004.06 1003.89 1003.45 1003.49 1003.83 1004.20 1004.10 1004.13 1004.18 1003.72 1003.90 1004.46 1004.87 1005.32 1005.92 1006.06 1006.31 1006.28 1006.59 1006.84 1007.50 1008.22 1008.63 1009.06 1009.59 1010.33 1010.70 1011.25 1011.57 1011.69 1012.28 1012.54 1012.60 1012.82 1013.08 1013.38
1006.84 1007.07 1006.76 1006.37 1006.12 1006.24 1006.22 1004.85 1004.99 1003.15 1003.76 1003.69 1003.66 1003.26 1003.11 1003.14 1003.14 1003.31 1003.52 1003.55 1003.74 1003.65 1003.45 1003.33 1003.91 1004.11 1004.69 1004.67 1004.95 1005.03 1005.57 1005.60 1006.22 1006.56 1006.94 1007.63 1008.11 1009.08 1009.85 1010.22 1010.56 1010.75 1010.99 1011.64 1012.11 1012.20 1012.27 1012.20 1012.65
1007.67 1007.20 1006.77 1006.19 1005.96 1005.69 1006.18 1004.98 1002.14 1003.67 1003.72 1003.10 1002.91 1002.78 1002.62 1002.48 1002.64 1002.59 1002.71 1002.92 1002.92 1003.09 1003.06 1003.14 1003.33 1003.43 1003.76 1003.72 1003.97 1004.29 1004.39 1004.93 1005.20 1005.60 1006.29 1006.87 1007.36 1008.20 1008.71 1009.61 1010.30 1010.76 1010.74 1011.10 1011.86 1012.46 1012.67 1012.80 1012.40
1007.71 1007.35 1006.06 1005.02 1005.76 1005.37 1005.90 1002.49 1001.52 1002.79 1002.85 1002.27 1002.25 1002.01 1001.96 1001.67 1001.74 1001.95 1002.18 1002.20 1002.40 1002.67 1002.71 1002.57 1002.51 1002.63 1002.78 1002.75 1003.04 1003.39 1003.73 1003.95 1004.26 1004.88 1005.43 1006.23 1006.97 1007.74 1008.54 1009.01 1009.52 1010.04 1010.21 1010.91 1011.79 1012.04 1012.42 1012.27 1012.10
1007.27 1005.17 1004.54 1004.77 1004.82 1005.21 1005.04 1001.35 1001.90 1002.24 1001.99 1001.36 1001.41 1001.61 1001.51 1001.22 1001.23 1001.46 1001.57 1001.68 1001.73 1001.83 1001.95 1001.86 1002.01 1001.99 1001.95 1002.02 1002.35 1002.92 1003.24 1003.61 1003.88 1004.46 1004.95 1005.58 1006.31 1007.20 1008.01 1008.35 1008.94 1009.39 1010.34 1011.09 1011.44 1011.77 1011.80 1011.78 1011.87
1005.86 1005.52 1004.88 1004.32 1004.51 1004.62 1003.94 1001.39 1002.20 1002.02 1002.09 1001.48 1001.30 1001.16 1001.00 1000.79 1000.52 1000.77 1000.80 1000.98 1001.16 1001.08 1000.93 1001.02 1000.87 1000.86 1001.15 1001.51 1002.01 1002.37 1002.54 1003.07 1003.45 1003.77 1004.36 1005.04 1005.83 1006.58 1007.29 1007.79 1008.45 1009.10 1009.84 1010.21 1010.70 1011.18 1011.61 1011.54 1011.63
1007.07 1006.07 1005.35 1004.83 1004.78 1004.08 1003.08 1002.24 1001.87 1002.28 1002.00 1001.39 1001.05 1000.89 1000.61 1000.23 1000.21 1000.26 1000.28 1000.20 1000.10 1000.29 1000.19 999.83 999.90 1000.20 1000.62 1001.11 1001.49 1001.61 1001.64 1002.33 1002.95 1003.43 1004.07 1004.76 1005.52 1006.08 1006.70 1007.45 1008.19 1008.87 1009.40 1010.15 1010.35 1010.65 1011.05 1011.48 1012.01
1007.33 1006.74 1006.15 1005.88 1005.29 1004.91 1003.73 1002.60 1002.35 1002.11 1001.53 1001.19 1001.00 1000.35 1000.04 999.72 999.55 999.64 999.65 999.46 999.36 999.32 999.16 999.18 999.31 999.56 999.83 1000.05 1000.19 1000.55 1001.02 1001.74 1002.45 1003.16 1003.77 1004.42 1004.98 1005.52 1006.13 1007.11 1007.90 1008.56 1009.13 1009.81 1010.29 1010.48 1010.94 1011.33 1011.88
1006.96 1006.57 1006.29 1006.17 1005.63 1004.84 1004.19 1002.20 1001.67 1001.10 1000.82 1000.51 1000.16 999.77 999.49 999.06 998.78 998.73 998.48 998.43 998.49 998.53 998.49 998.66 998.69 998.92 999.05 999.49 1000.04 1000.42 1001.25 1002.07 1002.48 1002.85 1003.46 1003.91 1004.46 1005.17 1005.69 1006.57 1007.24 1007.53 1008.46 1009.35 1009.71 1009.90 1010.30 1010.70 1011.59
1006.64 1006.74 1006.29 1006.15 1006.02 1004.69 1004.39 1001.48 1000.43 999.99 999.49 999.47 999.18 998.92 998.47 998.12 997.85 997.51 997.42 997.54 997.74 997.77 998.06 998.14 998.09 998.23 998.45 999.13 999.24 999.52 1000.03 1000.95 1001.72 1002.53 1003.03 1003.67 1004.36 1004.95 1005.48 1006.27 1006.99 1007.64 1008.06 1008.93 1009.08 1009.61 1010.01 1010.42 1010.55
1006.38 1006.68 1006.51 1006.48 1005.98 1005.39 1004.27 1003.36 998.61 998.93 998.09 998.00 997.99 997.65 997.26 997.07 997.05 996.96 996.83 996.85 996.93 997.23 997.43 997.61 997.57 997.75 998.03 998.46 998.86 999.43 1000.00 1000.57 1001.30 1001.89 1002.80 1003.72 1004.21 1004.75 1005.61 1006.13 1006.87 1007.44 1007.87 1008.51 1008.98 1009.61 1010.03 1010.15 1010.16
1006.25 1006.03 1006.24 1006.46 1006.11 1004.69 1003.96 1003.65 997.83 997.89 997.32 997.36 996.89 996.77 996.70 996.50 996.39 996.35 996.32 996.58 996.63 996.93 997.18 997.50 997.33 997.44 997.84 998.23 998.71 999.21 999.90 1000.48 1001.14 1001.91 1002.77 1003.44 1003.98 1004.71 1005.36 1005.97 1006.72 1007.28 1007.74 1008.28 1008.93 1009.47 1009.80 1009.89 1010.10
1006.32 1005.98 1005.56 1005.68 1004.84 1003.37 1003.06 1002.79 998.37 997.48 997.85 997.32 996.73 996.44 996.32 996.07 995.96 995.79 995.86 996.04 996.29 996.62 996.93 997.37 997.25 997.48 997.85 998.18 998.82 999.27 999.86 1000.47 1001.09 1001.84 1002.40 1003.05 1003.75 1004.39 1005.28 1005.94 1006.56 1007.16 1007.76 1008.30 1008.88 1009.24 1009.42 1009.69 1009.79
1005.42 1005.34 1004.02 1003.63 1003.26 1002.61 1003.24 1000.60 998.11 997.65 997.25 996.87 996.80 996.27 995.88 995.65 995.44 995.54 995.70 996.14 996.39 996.84 997.03 996.99 997.14 997.73 998.19 998.65 999.08 999.60 1000.12 1000.65 1001.27 1001.73 1002.32 1003.01 1003.64 1004.40 1005.49 1006.05 1006.65 1007.26 1007.72 1008.23 1008.66 1008.79 1008.98 1009.33 1009.47
1004.97 1004.75 1004.43 1004.12 1003.45 1002.43 1001.19 999.70 998.53 997.67 997.16 996.88 996.62 996.35 995.77 995.31 995.20 995.28 996.08 996.49 996.89 997.03 997.15 997.23 997.78 998.22 998.64 998.94 999.49 1000.00 1000.46 1000.99 1001.45 1002.18 1002.79 1003.24 1003.97 1004.87 1005.60 1006.24 1006.82 1007.26 1007.73 1008.08 1008.29 1008.38 1008.69 1008.98 1009.31
1005.43 1004.73 1004.63 1004.24 1002.83 1001.48 999.91 999.08 997.62 997.07 997.23 997.37 996.90 996.69 995.91 995.48 995.26 995.83 996.47 996.94 997.18 997.32 997.41 997.92 998.29 998.56 998.95 999.22 999.93 1000.45 1000.92 1001.41 1001.98 1002.48 1003.00 1003.69 1004.55 1005.18 1005.83 1006.39 1006.87 1007.28 1007.55 1007.76 1007.98 1008.14 1008.36 1008.70 1008.87
1006.48 1005.00 1004.45 1003.92 1002.98 1001.33 999.76 998.08 997.62 997.61 998.05 997.60 997.09 996.70 996.11 995.76 995.82 996.51 996.73 997.10 997.35 997.52 997.90 998.31 998.69 999.03 999.43 999.93 1000.47 1000.96 1001.47 1001.92 1002.49 1003.03 1003.68 1004.30 1004.95 1005.50 1006.00 1006.47 1006.88 1007.15 1007.34 1007.58 1007.68 1007.82 1007.97 1008.26 1008.33
1006.32 1005.44 1004.69 1003.72 1003.07 1002.48 1001.36 998.88 997.90 998.03 998.19 997.95 997.29 996.71 996.66 996.72 996.86 997.08 997.15 997.09 997.40 997.84 998.24 998.70 999.09 999.45 999.98 1000.39 1000.79 1001.42 1002.08 1002.58 1003.10 1003.66 1004.25 1004.81 1005.29 1005.80 1006.18 1006.56 1006.79 1006.89 1007.10 1007.31 1007.44 1007.51 1007.79 1007.97 1007.85
Wind_Speed
6 5 2 1 4 2 4 4 2 3 3 3 4 4 18 7 11 3 4 14 12 19 20 22 22 22 20 19 19 19 19 18 17 17 16 17 16 15 14 13 14 14 12 10 9 8 8 7 6
6 4 1 2 4 5 4 3 7 7 1 8 5 4 5 5 3 1 7 11 14 18 18 20 22 21 21 20 19 19 19 18 18 17 17 16 15 15 15 13 14 14 13 12 10 8 7 5 5
7 2 3 3 3 8 4 6 5 4 9 5 2 2 2 1 2 2 3 15 14 15 17 17 21 21 21 20 20 19 19 19 18 18 18 17 16 14 13 12 12 13 13 12 11 10 8 7 4
3 3 2 4 12 9 4 5 3 5 2 5 2 3 2 1 2 3 12 14 14 15 16 17 21 21 22 22 21 20 19 18 18 18 17 17 16 14 14 13 11 12 11 12 11 9 8 7 6
1 1 5 5 11 7 7 9 9 9 6 2 4 2 2 2 5 7 13 12 12 13 12 16 19 18 17 18 20 21 20 19 19 18 18 18 17 16 14 14 14 12 11 10 10 9 8 7 7
2 1 4 15 14 10 9 10 6 7 3 2 3 4 2 2 5 8 12 12 11 13 12 14 17 17 18 19 17 17 19 19 19 19 18 18 18 17 16 15 15 13 12 11 10 9 8 7 7
5 4 7 4 7 6 16 8 8 8 3 8 4 2 2 5 2 6 8 8 8 9 11 12 15 16 16 15 15 16 17 18 19 19 19 18 18 18 17 15 14 13 12 10 9 8 8 6 5
4 3 7 8 10 10 3 3 5 14 7 4 3 4 3 3 7 7 7 6 7 8 9 11 12 15 16 15 16 17 18 18 19 19 19 18 18 17 17 15 14 14 13 11 10 9 7 6 5
4 7 11 16 11 5 1 1 1 6 5 3 5 4 5 7 11 8 4 6 6 7 10 12 14 15 16 16 15 17 18 18 18 18 18 14 12 14 15 15 14 14 13 12 11 9 8 7 6
11 10 16 8 12 6 5 5 3 4 5 4 6 5 5 3 4 3 4 7 9 11 13 13 14 17 16 13 14 15 15 14 14 15 15 13 12 12 12 12 15 14 13 11 10 10 8 8 4
10 19 18 16 13 10 15 14 5 7 12 11 8 13 7 6 9 9 10 10 12 11 9 15 13 13 15 13 10 8 9 9 10 16 14 13 10 10 9 7 8 8 11 7 9 8 7 6 4
14 19 20 14 6 7 13 12 17 15 17 12 15 16 15 14 11 9 12 13 17 12 14 10 15 14 15 11 12 12 11 12 11 13 15 11 9 10 8 8 8 7 5 7 7 5 6 6 6
22 22 14 21 13 14 7 21 21 22 17 18 20 19 18 18 14 11 12 15 15 12 13 13 12 14 13 14 11 12 13 12 13 13 16 13 12 11 11 10 9 6 8 7 7 8 7 7 8
10 19 22 16 17 18 18 26 21 21 14 16 17 19 18 18 16 15 13 14 12 13 14 12 12 12 13 14 15 13 11 13 13 12 13 18 12 10 11 11 11 9 7 7 8 8 8 8 7
15 17 12 15 23 19 10 23 37 21 19 25 22 22 23 22 19 19 17 14 14 13 13 11 12 11 14 16 15 13 13 13 13 13 15 17 16 14 13 12 10 7 6 10 6 6 5 6 6
11 13 23 23 12 9 18 33 31 23 23 27 25 23 22 24 20 18 15 13 12 13 12 13 12 12 15 14 13 12 12 12 12 12 12 17 16 15 14 11 11 9 8 6 5 5 6 7 6
13 21 26 22 21 18 19 34 21 11 10 20 18 16 15 17 17 14 14 13 13 12 12 14 12 14 14 13 11 12 12 11 11 11 11 15 16 17 13 12 11 11 6 6 6 6 7 6 6
17 19 19 18 15 22 28 34 24 18 18 19 19 19 21 22 20 17 16 13 12 13 12 12 9 10 10 8 8 9 9 10 10 11 11 14 13 16 15 11 11 10 8 8 8 7 7 5 4
10 11 17 16 7 20 27 27 25 21 21 22 21 20 21 22 19 17 15 15 15 11 12 11 8 5 6 7 8 9 10 9 9 9 12 14 13 16 14 10 11 11 10 7 9 7 8 5 3
18 16 9 8 9 7 13 18 15 16 20 20 20 22 22 23 21 18 18 16 14 14 14 11 9 7 9 9 7 4 7 7 8 8 11 13 14 14 13 12 11 10 9 10 8 9 4 4 4
18 22 19 11 9 15 14 24 23 22 22 22 23 23 23 23 21 20 21 17 15 13 14 9 9 8 9 10 7 6 8 5 7 9 9 11 13 13 13 14 10 11 10 7 9 9 8 5 4
17 8 11 16 13 13 3 12 16 15 21 21 21 20 22 23 22 22 21 17 15 14 9 10 10 8 9 13 11 12 8 8 6 8 8 8 12 12 13 12 11 12 9 7 8 7 6 6 6
15 15 12 9 10 11 16 12 14 10 17 14 15 20 22 21 21 22 22 18 16 11 11 10 8 8 10 12 11 11 8 6 8 8 10 9 10 12 12 12 13 11 7 7 8 8 8 6 5
9 13 18 14 11 15 16 12 23 16 18 17 18 19 16 16 15 17 16 12 11 7 6 6 4 6 11 13 13 13 11 10 9 10 9 8 8 9 11 12 10 9 8 8 7 7 8 6 5
9 9 8 11 13 18 8 14 24 4 8 14 8 13 17 17 13 11 9 7 5 5 3 3 6 8 10 11 11 11 11 11 12 13 10 12 9 8 10 10 9 8 7 7 7 7 7 7 6
12 16 7 13 12 15 12 15 9 11 8 13 11 14 15 16 14 11 6 5 4 4 4 6 8 10 10 11 11 9 11 8 9 12 11 9 9 9 10 9 8 8 8 7 7 5 5 5 5
11 9 18 6 4 7 11 15 14 19 13 8 10 14 17 17 10 7 4 5 6 5 7 10 10 11 11 12 11 10 10 12 11 11 10 9 10 9 9 9 8 7 7 7 6 5 6 5 6
3 1 9 8 6 8 8 16 8 9 6 9 15 19 19 16 2 6 8 9 8 9 10 11 11 12 12 13 11 10 11 11 11 10 11 11 10 9 9 8 7 7 7 6 7 5 6 7 6
5 8 6 6 11 4 2 3 1 8 9 14 17 21 20 11 4 8 10 10 10 11 11 11 12 13 13 12 12 12 11 11 11 11 11 10 9 9 9 8 7 7 6 6 6 6 6 7 6
5 5 10 9 18 10 8 6 4 12 11 16 20 22 17 8 3 7 10 12 12 13 12 12 12 12 12 12 13 13 13 12 12 11 10 10 10 9 9 8 7 6 6 6 6 6 5 6 6
Wind_Direction
204 176 192 190 198 242 243 244 272 245 199 165 140 194 187 181 167 199 60 170 147 153 165 170 166 166 168 168 170 166 167 169 169 170 168 165 164 165 165 160 158 158 151 148 148 145 142 136 132
170 165 146 116 236 212 217 233 221 223 236 320 181 161 183 215 247 125 135 174 158 156 166 173 173 169 170 172 174 170 170 171 172 172 169 170 168 168 167 168 166 158 157 158 157 154 147 146 143
173 236 200 197 214 221 236 196 227 287 293 258 272 182 184 225 207 168 141 157 156 163 170 174 176 172 173 177 175 176 174 174 174 174 173 171 170 170 166 170 171 171 164 162 166 166 163 161 166
192 172 129 225 229 239 244 191 109 314 18 195 212 222 206 236 264 139 142 149 159 166 175 175 180 178 178 180 179 177 179 180 177 177 175 173 171 173 170 170 180 179 173 172 175 174 178 176 177
141 263 213 240 244 253 254 270 292 295 291 199 193 217 189 99 77 116 153 157 164 166 181 186 187 184 183 186 185 177 180 183 183 182 181 176 176 177 174 174 179 184 186 185 184 187 192 197 203
172 273 216 229 240 253 264 265 262 253 275 98 175 150 135 80 178 160 163 164 170 167 179 191 188 190 190 193 191 185 184 185 187 186 186 182 179 179 179 182 183 186 191 196 199 199 208 212 226
229 200 232 256 249 255 255 246 230 236 204 93 117 180 42 13 298 141 153 156 160 171 183 191 195 198 202 195 195 192 195 192 191 191 190 187 186 183 183 186 186 190 196 203 204 208 219 229 223
205 221 221 222 235 251 244 252 267 217 208 128 183 147 130 11 119 121 136 160 173 180 194 200 202 201 208 203 204 200 199 200 197 196 195 190 188 190 187 187 190 196 197 202 207 217 223 232 241
155 226 233 227 207 225 259 273 253 334 284 292 208 182 119 128 132 128 147 193 207 206 199 197 200 207 208 208 206 207 207 204 205 203 201 194 198 195 192 198 188 198 201 202 206 215 223 220 230
203 219 225 224 209 208 231 244 273 307 283 280 260 54 1 157 64 16 216 228 223 227 217 208 205 208 208 210 211 209 211 210 209 207 202 203 202 199 198 199 199 203 204 207 212 216 214 216 227
210 230 229 229 224 227 256 267 265 251 258 239 274 308 321 316 318 321 301 284 293 270 227 210 207 210 214 214 207 204 205 212 208 209 203 202 197 199 198 202 202 206 203 208 203 205 215 222 237
241 231 237 245 226 226 248 266 254 251 251 280 282 289 287 275 275 281 285 280 290 276 259 212 205 205 209 210 211 212 207 207 210 205 201 199 198 197 200 199 197 197 206 211 212 210 222 221 233
235 240 234 243 241 235 254 260 266 261 262 278 281 279 280 285 284 272 266 272 270 269 257 246 209 209 206 208 215 216 216 211 211 205 198 199 196 194 190 190 193 194 191 211 214 215 213 215 229
230 241 246 245 235 238 242 258 260 261 266 263 270 276 278 276 280 276 262 264 256 258 262 262 228 216 204 211 213 215 215 215 211 208 204 201 199 194 197 190 197 190 186 206 223 218 211 208 216
257 254 235 231 234 236 228 265 252 254 263 268 268 265 269 270 270 260 259 250 247 244 254 250 243 225 213 213 217 217 215 212 211 209 205 201 198 198 191 192 198 195 180 198 203 221 231 239 219
231 235 241 226 213 232 198 253 251 253 246 248 254 257 259 260 258 257 252 253 256 253 242 253 249 231 218 217 218 219 218 213 214 211 205 204 199 196 195 193 200 197 200 181 196 198 223 235 227
219 232 227 237 220 220 210 246 247 236 233 247 255 259 261 267 267 259 249 246 250 246 246 251 231 226 220 222 221 222 218 217 215 210 208 200 196 192 195 199 205 197 177 191 200 205 227 227 229
228 237 252 238 217 217 228 246 250 247 275 265 265 267 271 272 270 273 269 256 250 252 251 248 252 240 228 228 219 221 218 217 211 209 205 192 189 187 198 199 197 190 190 192 189 206 216 250 248
265 263 247 240 208 223 226 243 243 243 256 263 267 268 267 269 276 274 269 269 267 258 258 254 266 248 197 199 204 218 217 208 207 204 193 186 187 195 199 193 190 183 198 194 192 198 207 207 216
241 248 242 269 255 255 251 261 257 252 255 261 264 267 270 275 274 273 270 267 267 268 270 270 264 253 210 207 199 191 186 206 201 191 185 187 194 194 189 181 181 180 183 188 177 193 172 205 174
232 239 239 252 285 283 273 272 264 255 254 256 255 261 264 263 268 268 267 265 264 262 265 274 272 253 221 207 173 139 133 133 178 191 187 190 188 187 180 176 169 170 184 176 187 204 202 211 188
236 220 228 237 242 249 258 282 268 259 258 251 258 256 257 258 255 256 260 260 256 262 270 273 268 239 212 188 187 179 187 167 181 176 181 179 179 174 176 171 169 176 167 165 196 192 202 220 219
243 227 251 264 252 262 252 276 258 248 263 263 260 252 255 257 259 260 261 260 264 270 284 287 278 235 199 187 183 174 181 161 163 163 155 158 161 167 154 163 171 169 167 174 188 179 198 202 218
244 210 219 231 245 246 243 238 278 259 262 258 262 267 265 281 274 250 256 261 266 270 282 290 251 190 178 175 176 180 170 153 150 153 146 149 146 151 151 157 159 159 164 171 182 189 191 195 207
232 210 182 208 215 237 231 209 241 163 289 293 283 297 288 284 273 266 270 255 270 267 244 207 168 148 157 163 167 168 161 156 150 150 145 142 139 142 144 150 151 153 157 166 171 183 185 190 205
213 209 205 202 209 234 213 224 243 260 280 286 289 297 303 292 284 263 255 232 208 170 142 129 124 131 143 142 135 140 139 139 140 146 140 136 136 134 141 142 143 150 159 162 174 183 192 195 208
187 200 226 302 223 228 196 245 271 274 272 313 348 335 328 312 289 229 159 151 150 121 137 126 127 126 130 123 122 125 131 136 128 126 131 127 121 126 131 140 150 151 163 176 178 197 200 203 216
270 305 188 210 221 213 210 237 245 195 81 23 359 348 329 326 226 145 149 144 129 133 118 118 121 118 117 114 120 125 125 124 121 119 115 118 121 131 139 140 152 163 179 190 200 199 203 206 212
329 233 231 258 239 292 278 164 336 126 59 5 357 350 348 339 141 154 139 133 129 121 117 115 115 115 114 117 120 120 118 115 117 118 120 121 127 136 140 150 161 178 184 201 217 227 220 225 210
282 293 257 244 220 241 290 278 142 97 22 356 349 348 355 353 132 148 138 134 133 125 122 120 119 117 118 119 113 109 114 118 120 125 126 132 132 138 147 157 168 180 203 213 229 240 214 236 218